When you browse on this site, cookies collect data to enhance your experience and personalize the content and advertising you see.
Visit our Privacy Policy to learn more. By continuing to use the site, you agree to this use of cookies and data.
  • In United Kingdom
  • List of Countries
  • For 7 days
  • Water Temperature
  • Weather Map
  • Weather Widgets
  • user-avatar
    Login

    Hourly Weather Abercarn

    Today, 29 March, Sunday

    Time Temperature Precipitation Wind Pressure Humidity
    00:00 -2°C° 0 mm 8 mps 758 mmHg 76%
    01:00 -2°C° 0 mm 7 mps 759 mmHg 76%
    02:00 -3°C° 0 mm 7 mps 759 mmHg 77%
    03:00 -3°C° 0 mm 7 mps 759 mmHg 78%
    04:00 -3°C° 0 mm 7 mps 759 mmHg 77%
    05:00 -4°C° 0 mm 7 mps 760 mmHg 77%
    06:00 -4°C° 0 mm 7 mps 760 mmHg 76%
    07:00 -4°C° 0 mm 8 mps 760 mmHg 71%
    08:00 -3°C° 0 mm 9 mps 761 mmHg 67%
    09:00 0°C° 0 mm 10 mps 761 mmHg 62%
    10:00 0°C° 0 mm 10 mps 761 mmHg 60%
    11:00 +1°C° 0 mm 10 mps 761 mmHg 58%
    12:00 +2°C° 0 mm 10 mps 762 mmHg 56%
    13:00 +3°C° 0 mm 9 mps 761 mmHg 56%
    14:00 +3°C° 0 mm 9 mps 761 mmHg 56%
    15:00 +3°C° 0 mm 9 mps 761 mmHg 56%
    16:00 +2°C° 0 mm 8 mps 761 mmHg 60%
    17:00 +2°C° 0 mm 7 mps 761 mmHg 63%
    18:00 +1°C° 0 mm 6 mps 761 mmHg 67%
    19:00 -1°C° 0 mm 6 mps 761 mmHg 69%
    20:00 -1°C° 0 mm 5 mps 762 mmHg 71%
    21:00 -2°C° 0 mm 5 mps 762 mmHg 72%
    22:00 -2°C° 0 mm 5 mps 762 mmHg 75%
    23:00 -3°C° 0 mm 4 mps 762 mmHg 77%

    Tomorrow, 30 March, Monday

    Time Temperature Precipitation Wind Pressure Humidity
    00:00 -4°C° 0 mm 4 mps 762 mmHg 79%
    01:00 -4°C° 0 mm 4 mps 761 mmHg 79%
    02:00 -4°C° 0 mm 3 mps 760 mmHg 79%
    03:00 -4°C° 0 mm 3 mps 760 mmHg 79%
    04:00 -4°C° 0 mm 3 mps 760 mmHg 78%
    05:00 -2°C° 0 mm 3 mps 759 mmHg 77%
    06:00 -2°C° 0 mm 3 mps 759 mmHg 76%
    07:00 -1°C° 0 mm 4 mps 759 mmHg 74%
    08:00 +1°C° 0 mm 5 mps 759 mmHg 72%
    09:00 +3°C° 0 mm 6 mps 759 mmHg 69%
    10:00 +4°C° 0 mm 6 mps 758 mmHg 69%
    11:00 +4°C° 0 mm 6 mps 758 mmHg 68%
    12:00 +4°C° 0 mm 6 mps 758 mmHg 67%
    13:00 +5°C° 0 mm 6 mps 757 mmHg 67%
    14:00 +5°C° 0 mm 6 mps 757 mmHg 67%
    15:00 +5°C° 0 mm 6 mps 757 mmHg 67%
    16:00 +5°C° 0.1 mm 6 mps 756 mmHg 72%
    17:00 +4°C° 0.1 mm 6 mps 756 mmHg 77%
    18:00 +3°C° 0.1 mm 6 mps 756 mmHg 83%
    19:00 +2°C° 0 mm 5 mps 756 mmHg 86%
    20:00 +2°C° 0 mm 5 mps 756 mmHg 89%
    21:00 +1°C° 0 mm 5 mps 757 mmHg 92%
    22:00 0°C° 0 mm 5 mps 757 mmHg 92%
    23:00 0°C° 0 mm 5 mps 757 mmHg 93%

    Day after tomorrow, 31 March, Tuesday

    Time Temperature Precipitation Wind Pressure Humidity
    00:00 -1°C° 0 mm 4 mps 757 mmHg 93%
    01:00 -1°C° 0 mm 4 mps 757 mmHg 93%
    02:00 -2°C° 0 mm 4 mps 756 mmHg 94%
    03:00 -2°C° 0 mm 4 mps 756 mmHg 94%
    04:00 -2°C° 0 mm 4 mps 756 mmHg 94%
    05:00 -2°C° 0 mm 4 mps 756 mmHg 95%
    06:00 -3°C° 0 mm 4 mps 757 mmHg 95%
    07:00 -1°C° 0 mm 4 mps 757 mmHg 89%
    08:00 +1°C° 0 mm 5 mps 757 mmHg 82%
    09:00 +2°C° 0 mm 6 mps 757 mmHg 75%
    10:00 +3°C° 0 mm 5 mps 757 mmHg 73%
    11:00 +3°C° 0 mm 5 mps 757 mmHg 71%
    12:00 +5°C° 0 mm 5 mps 757 mmHg 69%
    13:00 +5°C° 0 mm 5 mps 756 mmHg 69%
    14:00 +6°C° 0 mm 5 mps 756 mmHg 68%
    15:00 +6°C° 0 mm 5 mps 755 mmHg 68%
    16:00 +5°C° 0 mm 4 mps 755 mmHg 71%
    17:00 +5°C° 0 mm 3 mps 755 mmHg 74%
    18:00 +5°C° 0 mm 3 mps 754 mmHg 78%
    19:00 +4°C° 0 mm 2 mps 755 mmHg 81%
    20:00 +3°C° 0 mm 2 mps 755 mmHg 84%
    21:00 +2°C° 0 mm 2 mps 755 mmHg 87%
    22:00 +2°C° 0 mm 2 mps 754 mmHg 87%
    23:00 +1°C° 0 mm 2 mps 754 mmHg 87%

    1 April, Wednesday

    Time Temperature Precipitation Wind Pressure Humidity
    00:00 +1°C° 0 mm 2 mps 754 mmHg 87%
    01:00 +1°C° 0 mm 2 mps 754 mmHg 87%
    02:00 +1°C° 0 mm 2 mps 753 mmHg 86%
    03:00 +1°C° 0 mm 2 mps 753 mmHg 85%
    04:00 +3°C° 0 mm 1 mps 753 mmHg 83%
    05:00 +3°C° 0 mm 1 mps 752 mmHg 80%
    06:00 +4°C° 0 mm 1 mps 752 mmHg 77%
    07:00 +5°C° 0 mm 1 mps 752 mmHg 74%
    08:00 +4°C° 0 mm 2 mps 752 mmHg 70%
    09:00 +5°C° 0 mm 2 mps 752 mmHg 67%
    10:00 +6°C° 0 mm 2 mps 752 mmHg 66%
    11:00 +7°C° 0 mm 2 mps 752 mmHg 65%
    12:00 +7°C° 0 mm 2 mps 751 mmHg 64%
    13:00 +7°C° 0 mm 2 mps 751 mmHg 66%
    14:00 +7°C° 0 mm 2 mps 750 mmHg 67%
    15:00 +7°C° 0 mm 2 mps 750 mmHg 68%
    16:00 +7°C° 0 mm 2 mps 749 mmHg 71%
    17:00 +6°C° 0 mm 2 mps 749 mmHg 73%
    18:00 +6°C° 0 mm 2 mps 749 mmHg 75%
    19:00 +5°C° 0 mm 2 mps 749 mmHg 76%
    20:00 +5°C° 0 mm 2 mps 749 mmHg 76%
    21:00 +4°C° 0 mm 2 mps 749 mmHg 77%
    22:00 +3°C° 0 mm 2 mps 749 mmHg 78%
    23:00 +3°C° 0 mm 2 mps 749 mmHg 80%

    2 April, Thursday

    Time Temperature Precipitation Wind Pressure Humidity
    00:00 +4°C° 0 mm 1 mps 749 mmHg 81%
    01:00 +3°C° 0 mm 2 mps 748 mmHg 82%
    02:00 +3°C° 0 mm 2 mps 748 mmHg 82%
    03:00 +3°C° 0 mm 2 mps 748 mmHg 82%
    04:00 +3°C° 0 mm 2 mps 748 mmHg 82%
    05:00 +3°C° 0 mm 2 mps 748 mmHg 83%
    06:00 +2°C° 0 mm 2 mps 748 mmHg 83%
    07:00 +3°C° 0 mm 3 mps 748 mmHg 79%
    08:00 +4°C° 0 mm 3 mps 747 mmHg 75%
    09:00 +7°C° 0 mm 3 mps 747 mmHg 71%
    10:00 +7°C° 0 mm 4 mps 747 mmHg 70%
    11:00 +8°C° 0 mm 4 mps 747 mmHg 70%
    12:00 +8°C° 0 mm 4 mps 747 mmHg 70%
    13:00 +8°C° 0.1 mm 4 mps 747 mmHg 70%
    14:00 +9°C° 0.1 mm 5 mps 747 mmHg 69%
    15:00 +9°C° 0.1 mm 5 mps 746 mmHg 69%
    16:00 +8°C° 0 mm 4 mps 746 mmHg 73%
    17:00 +7°C° 0 mm 4 mps 746 mmHg 77%
    18:00 +8°C° 0 mm 3 mps 745 mmHg 81%
    19:00 +7°C° 0 mm 3 mps 745 mmHg 85%
    20:00 +5°C° 0 mm 3 mps 745 mmHg 89%
    21:00 +4°C° 0 mm 3 mps 745 mmHg 93%
    22:00 +4°C° 0.1 mm 3 mps 745 mmHg 93%
    23:00 +5°C° 0.1 mm 3 mps 745 mmHg 94%

    3 April, Friday

    Time Temperature Precipitation Wind Pressure Humidity
    00:00 +6°C° 0.1 mm 2 mps 745 mmHg 94%
    01:00 +4°C° 0 mm 3 mps 744 mmHg 95%
    02:00 +4°C° 0 mm 3 mps 744 mmHg 95%
    03:00 +3°C° 0 mm 3 mps 743 mmHg 95%
    04:00 +3°C° 0 mm 3 mps 743 mmHg 95%
    05:00 +4°C° 0 mm 4 mps 743 mmHg 94%
    06:00 +4°C° 0 mm 4 mps 743 mmHg 93%
    07:00 +5°C° 0 mm 4 mps 744 mmHg 90%
    08:00 +6°C° 0 mm 4 mps 744 mmHg 86%
    09:00 +7°C° 0 mm 5 mps 744 mmHg 82%
    10:00 +7°C° 0.1 mm 5 mps 744 mmHg 78%
    11:00 +8°C° 0.1 mm 5 mps 744 mmHg 74%
    12:00 +9°C° 0.1 mm 5 mps 744 mmHg 70%
    13:00 +8°C° 0.1 mm 5 mps 744 mmHg 68%
    14:00 +8°C° 0.1 mm 6 mps 744 mmHg 66%
    15:00 +8°C° 0.1 mm 6 mps 743 mmHg 65%
    16:00 +7°C° 0 mm 5 mps 743 mmHg 68%
    17:00 +6°C° 0 mm 4 mps 743 mmHg 71%
    18:00 +5°C° 0 mm 3 mps 743 mmHg 75%
    19:00 +4°C° 0 mm 3 mps 743 mmHg 79%
    20:00 +4°C° 0 mm 2 mps 743 mmHg 84%
    21:00 +4°C° 0 mm 1 mps 743 mmHg 88%
    22:00 +3°C° 0 mm 2 mps 743 mmHg 90%
    23:00 +3°C° 0 mm 2 mps 743 mmHg 92%
    Show more